SCP
0 0 0 0 0 0 0 0 0 0 0 0 0 0 0 0 0 0 0 0 0 0 0 0 0 0 0 0 0 0 0 0 0 0 0 0 0 0 0 0 0 0 0 0
0 0 0 0 0 0 0 0 0 0 0 0 0 0 0 0 0 0 0 0 0 0 0 0 0 0 0 0 0 0 0 0 0 0 0 0 0 0 0 0 0 0 0 0
0 0 0 0 0 0 0 0 0 0 0 0 0 0 0 0 0 0 0 0 0 0 0 0 0 0 0 0 0 0 0 0 0 0 0 0 0 0 0 0 0 0 0 0
0 0 0 0 0 0 0 0 0 0 0 0 0 0 0 0 0 0 0 0 0 0 0 0 0 0 0 0 0 0 0 0 0 0 0 0 0 0 0 0 0 0 0 0
0 0 0 0 0 0 0 0 0 0 0 0 0 0 0 0 0 0 0 0 0 0 0 0 0 0 0 0 0 0 0 0 0 0 0 0 0 0 0 0 0 0 0 0
0 0 0 0 0 0 0 0 0 0 0 0 0 0 0 0 0 0 0 0 0 0 0 0 0 0 0 0 0 0 0 0 0 0 0 0 0 0 0 0 0 0 0 0
0 0 0 0 0 0 0 0 0 0 0 0 0 0 0 0 0 0 0 0 0 0 0 0 0 0 0 0 0 0 0 0 0 0 0 0 0 0 0 0 0 0 0 0
0 0 0 0 0 0 0 0 0 0 0 0 0 0 0 0 0 0 0 0 0 0 0 0 0 0 0 0 0 0 0 0 0 0 0 0 0 0 0 0 0 0 0 0
0 0 0 0 0 0 0 0 0 0 0 0 0 0 0 0 0 0 0 0 0 0 0 0 0 0 0 0 0 0 0 0 0 0 0 0 0 0 0 0 0 0 0 0
0 0 0 0 0 0 0 0 0 0 0 0 0 0 0 0 0 0 0 0 0 0 0 0 0 0 0 0 0 0 0 0 0 0 0 0 0 0 0 0 0 0 0 0
0 0 0 0 0 0 0 0 0 0 0 0 0 0 0 0 0 0 0 0 0 0 0 0 0 0 0 0 0 0 0 0 0 0 0 0 0 0 0 0 0 0 0 0
0 0 0 0 0 0 0 0 0 0 0 0 0 0 0 0 0 0 0 0 0 0 0 0 0 0 0 0 0 0 0 0 0 0 0 0 0 0 0 0 0 0 0 0
0 0 0 0 0 0 0 0 0 0 0 0 0 0 0 0 0 0 0 0 0 0 0 0 0 0 0 0 0 0 0 0 0 0 0 0 0 0 0 0 0 0 0 0
0 0 0 0 0 0 0 0 0 0 0 0 0 0 0 0 0 0 0 0 0 0 0 0 0 0 0 0 0 0 0 0 0 0 0 0 0 0 0 0 0 0 0 0
0 0 0 0 0 0 0 0 0 0 0 0 0 0 0 0 0 0 0 0 0 0 0 0 0 0 0 0 0 0 0 0 0 0 0 0 0 0 0 0 0 0 0 0
0 0 0 0 0 0 0 0 0 0 0 0 0 0 0 0 0 0 0 0 0 0 0 0 0 0 0 0 0 0 0 0 0 0 0 0 0 0 0 0 0 0 0 0
0 0 0 0 0 0 0 0 0 0 0 0 0 0 0 0 0 0 0 0 0 0 0 0 0 0 0 0 0 0 0 0 0 0 0 0 0 0 0 0 0 0 0 0
0 0 0 0 0 0 0 0 0 0 0 0 0 0 0 0 0 0 0 0 0 0 0 0 0 0 0 0 0 0 0 0 0 0 0 0 0 0 0 0 0 0 0 0
0 0 0 0 0 0 0 0 0 0 0 0 0 0 0 0 0 0 0 0 0 0 0 0 0 0 0 0 0 0 0 0 0 0 0 0 0 0 0 0 0 0 0 0
0 0 0 0 0 0 0 0 0 0 0 0 0 0 0 0 0 0 0 0 0 0 0 0 0 0 0 0 0 0 0 0 0 0 0 0 0 0 0 0 0 0 0 0
0 0 0 0 0 0 0 0 0 0 0 0 0 0 0 0 0 0 0 0 0 0 0 0 0 0 0 0 0 0 0 0 0 0 0 0 0 0 0 0 0 0 0 0
0 0 0 0 0 0 0 0 0 0 0 0 0 0 0 0 0 0 0 0 0 0 0 0 0 0 0 0 0 0 0 0 0 0 0 0 0 0 0 0 0 0 0 0
0 0 0 0 0 0 0 0 0 0 0 0 0 0 0 0 0 0 0 0 0 0 0 0 0 0 0 0 0 0 0 0 0 0 0 0 0 0 0 0 0 0 0 0
0 0 0 0 0 0 0 0 0 0 0 0 0 0 0 0 0 0 0 0 0 0 0 0 0 0 0 0 0 0 0 0 0 0 0 0 0 0 0 0 0 0 0 0
0 0 0 0 0 0 0 0 0 0 0 0 0 0 0 0 0 0 0 0 0 0 0 0 0 0 0 0 0 0 0 0 0 0 0 0 0 0 0 0 0 0 0 0
0 0 0 0 0 0 0 0 0 0 0 0 0 0 0 0 0 0 0 0 0 0 0 0 0 0 0 0 0 0 0 0 0 0 0 0 0 0 0 0 0 0 0 0
0 0 0 0 0 0 0 0 0 0 0 0 0 0 0 0 0 0 0 0 0 0 0 0 0 0 0 0 0 0 0 0 0 0 0 0 0 0 0 0 0 0 0 0
Wind_Speed
19 11 10 13 15 20 24 26 21 26 27 19 12 13 11 8 6 7 9 13 17 18 17 16 16 16 16 16 16 16 16 16 16 13 12 12 12 12 11 11 11 10 9 8
18 15 10 8 17 25 30 23 28 29 38 14 8 10 11 11 11 12 14 17 19 19 18 19 20 19 18 19 17 16 17 16 13 13 12 13 13 12 12 11 9 9 9 9
19 15 5 18 31 22 17 19 15 29 39 14 11 13 18 17 14 17 19 20 21 22 23 22 23 22 22 19 16 15 14 13 13 14 14 13 12 12 13 12 10 10 10 10
9 10 23 25 18 19 23 23 21 21 18 9 15 17 16 14 15 19 20 19 19 19 20 20 17 16 14 13 15 15 14 13 14 14 13 12 12 13 12 9 10 10 10 10
12 22 21 22 12 14 19 28 31 31 28 22 13 9 18 15 16 19 18 17 17 18 17 15 16 16 15 15 15 15 16 16 15 15 14 14 14 13 10 9 10 9 8 9
15 16 16 19 7 13 12 25 23 17 25 25 11 14 25 15 14 17 14 11 10 9 9 13 14 16 16 16 16 18 17 15 14 14 15 15 15 11 8 8 9 8 8 8
23 21 14 10 5 11 15 18 3 14 19 17 16 20 13 4 4 6 6 5 7 10 11 12 15 17 17 16 18 15 12 11 12 13 14 12 11 8 8 8 7 7 8 7
15 19 18 7 10 15 9 1 1 2 4 6 7 5 3 3 2 2 2 4 6 8 8 9 13 15 15 15 12 10 12 12 12 12 10 9 10 9 8 9 8 8 6 6
11 10 3 4 4 1 2 2 0 1 1 1 1 1 2 3 4 5 6 6 5 8 9 7 9 11 13 10 10 12 12 11 10 10 9 9 10 10 8 8 7 7 6 7
6 6 3 2 2 1 2 2 1 1 2 2 3 3 4 4 4 5 5 5 5 8 8 6 5 5 6 9 10 12 11 10 9 9 8 7 6 7 8 8 8 7 7 7
4 2 1 3 4 5 4 3 4 4 4 4 4 4 3 3 4 4 4 4 4 6 7 6 6 6 6 8 9 9 8 7 7 7 7 7 6 5 7 5 7 8 6 5
5 6 6 4 6 7 6 5 4 4 4 4 3 3 4 4 3 4 4 4 5 6 6 6 6 6 5 5 7 9 7 6 5 5 5 5 5 2 5 6 9 10 9 7
1 3 3 3 5 7 6 5 4 4 4 4 4 4 5 4 4 5 5 5 5 6 6 6 6 6 4 3 5 6 6 6 5 5 5 5 5 6 5 3 5 7 8 8
2 4 4 3 4 6 7 7 6 6 6 5 5 5 6 6 6 7 6 5 6 7 7 6 7 5 4 2 4 4 5 5 5 5 5 5 5 5 5 5 4 1 1 1
5 3 5 6 7 7 6 7 8 7 6 6 6 6 7 7 7 7 6 5 8 8 7 6 7 5 5 3 3 4 4 3 3 4 4 4 4 4 4 4 3 3 1 2
3 7 8 9 9 8 7 7 8 6 5 6 7 7 7 9 9 8 8 7 7 7 6 6 6 4 5 4 4 4 3 5 5 4 4 4 4 4 4 4 4 3 2 1
3 5 5 6 7 7 7 7 7 6 6 6 5 6 8 9 9 9 9 9 9 8 7 6 5 4 4 4 5 4 4 4 6 5 4 4 4 4 4 4 3 3 2 2
6 6 5 4 5 8 7 7 7 7 5 4 5 7 8 7 7 7 5 6 7 9 8 5 4 5 5 5 5 4 4 4 4 4 4 4 4 4 4 4 3 3 2 1
8 8 9 10 8 8 7 6 6 5 5 5 8 9 8 7 7 6 5 6 7 6 5 5 6 6 5 4 5 4 5 5 5 4 4 5 4 3 3 3 2 2 1 1
8 8 9 10 10 8 7 6 6 7 6 6 8 9 9 7 6 6 7 7 4 2 2 3 4 4 4 4 5 4 4 5 5 4 4 3 3 3 2 2 2 2 2 2
7 8 9 9 9 9 8 6 6 8 7 7 8 9 7 6 5 4 5 4 3 3 3 4 3 3 3 4 5 4 4 4 3 3 3 3 2 2 2 2 2 2 3 3
5 6 8 8 8 9 7 7 7 8 8 8 8 7 7 6 5 5 5 2 1 2 3 2 2 2 3 4 3 3 3 3 2 2 2 2 2 2 2 2 3 3 3 4
6 6 7 7 7 7 7 8 8 8 8 7 7 6 5 4 3 3 3 1 1 2 2 1 1 2 3 3 2 2 2 1 1 1 2 2 2 3 3 3 3 4 4 4
7 7 6 5 6 8 9 7 6 6 6 6 6 5 4 3 4 3 2 2 3 3 1 1 1 2 3 1 1 1 1 1 1 2 2 2 3 3 3 4 4 4 4 5
7 7 7 7 7 6 5 5 6 6 6 5 6 6 4 3 2 1 2 3 3 2 2 3 3 2 1 0 1 1 2 2 2 3 3 3 3 4 4 4 4 5 5 5
7 6 6 6 5 4 3 4 4 3 3 3 3 4 4 3 3 2 2 2 2 2 2 2 2 2 1 2 2 3 3 3 3 3 4 4 5 5 5 5 6 5 5 5
7 6 5 6 6 5 4 4 4 3 3 2 2 3 3 3 3 3 3 2 2 2 2 2 2 2 3 3 3 3 3 3 4 4 4 4 5 5 5 6 5 5 5 6
Wind_Direction
238 219 178 196 204 208 213 223 233 249 254 243 208 224 233 232 218 200 199 198 201 202 201 197 195 194 192 189 184 181 180 183 184 177 172 168 169 170 170 172 175 174 172 176
244 233 203 216 222 216 219 229 237 251 258 249 220 226 237 232 216 211 212 212 211 208 202 199 198 195 191 190 185 181 185 186 176 171 172 173 173 171 172 175 173 172 181 183
243 238 208 235 233 221 221 221 218 239 253 252 235 231 236 235 223 220 221 218 214 209 206 203 199 193 192 188 177 179 183 178 174 174 177 178 173 173 179 179 175 182 188 190
242 224 231 241 238 214 223 233 228 241 254 230 228 240 244 236 227 231 228 224 218 213 209 205 194 187 179 169 172 178 179 179 177 177 180 176 176 183 183 177 184 190 193 197
228 243 250 261 236 194 213 239 232 235 249 251 242 278 270 246 233 239 234 225 219 212 205 190 180 174 165 168 171 177 184 185 183 180 180 179 185 188 182 179 188 193 192 195
226 236 236 249 216 175 175 248 242 218 241 249 236 248 261 254 234 239 238 225 211 185 165 165 166 158 161 170 175 187 189 185 180 180 182 187 189 184 177 183 192 190 198 200
232 240 244 250 177 140 185 239 225 196 225 235 223 234 266 305 259 247 237 208 165 152 157 162 156 156 166 172 188 188 172 167 175 182 186 186 181 174 171 178 180 189 203 206
227 236 241 192 154 182 211 83 127 228 241 238 239 273 324 1 9 41 80 102 125 131 132 137 150 157 168 184 179 153 158 169 177 181 180 174 173 173 172 176 186 196 203 218
211 227 236 154 181 125 92 129 21 274 298 182 156 38 46 54 55 57 71 79 89 111 112 123 149 159 171 169 146 152 162 172 173 171 174 171 174 173 170 177 190 198 202 221
202 214 194 179 143 104 84 106 67 66 70 94 107 96 88 84 76 73 71 77 93 111 119 126 135 139 141 138 145 152 163 165 162 165 168 167 170 172 176 185 193 199 205 218
211 195 166 230 197 157 133 111 83 60 54 68 94 87 90 90 86 85 80 73 94 114 121 119 108 97 105 129 138 144 149 150 154 161 164 167 172 182 185 191 193 195 203 198
206 190 186 196 175 160 141 134 125 103 71 50 68 93 91 86 83 89 89 86 90 93 102 105 104 98 97 120 135 138 142 150 155 154 154 156 157 156 210 193 207 216 204 196
161 154 138 110 132 142 138 138 126 104 102 93 69 82 97 88 81 83 83 87 95 99 103 106 103 93 78 100 127 141 151 154 151 155 159 162 165 172 178 196 212 218 224 226
74 113 113 101 113 126 125 121 105 85 72 76 80 82 88 87 81 77 72 77 90 91 91 94 93 73 33 66 119 131 135 146 152 158 161 164 169 170 167 168 172 183 327 187
33 71 110 103 90 90 100 106 98 85 76 63 63 76 87 91 83 66 52 68 81 76 70 77 80 51 11 42 100 118 123 128 132 133 137 141 141 141 145 150 149 139 93 41
35 77 88 93 91 85 86 93 98 90 78 72 68 67 76 87 82 64 42 42 72 73 57 64 65 26 7 45 83 87 93 110 116 119 120 122 125 130 134 135 134 136 145 145
114 105 98 103 97 85 69 67 81 83 73 67 67 80 89 91 80 66 53 51 67 65 51 55 49 22 30 53 77 87 88 95 101 103 109 117 121 126 130 133 138 142 153 209
36 55 55 87 109 104 82 61 59 57 47 45 73 77 75 78 85 83 75 77 78 65 43 32 47 46 49 58 70 80 88 90 93 100 103 104 108 112 118 125 135 143 148 277
40 52 54 57 63 80 76 63 53 49 40 60 78 76 72 73 82 85 77 69 66 61 25 5 58 59 53 70 81 79 91 96 94 93 98 108 105 106 115 125 138 152 171 207
51 56 65 64 57 62 68 60 62 60 49 67 87 86 78 68 72 77 76 68 47 32 26 42 55 52 45 56 76 79 89 98 103 103 102 106 115 122 129 144 164 191 218 236
58 64 70 73 69 59 52 52 66 68 56 59 78 86 86 75 67 72 79 74 18 17 58 68 64 57 52 63 71 78 86 94 102 111 120 127 135 149 171 191 210 227 236 245
62 71 74 75 79 68 48 48 60 70 69 68 71 79 83 76 69 63 57 73 35 50 66 64 66 75 80 77 77 84 91 100 108 121 139 157 175 195 214 226 234 240 243 246
73 77 78 75 80 81 67 55 54 62 65 63 64 67 71 67 53 73 71 20 10 74 76 68 131 128 109 89 92 100 112 127 148 174 195 208 216 222 231 240 244 247 251 253
78 78 78 79 81 80 72 57 55 59 63 61 53 52 62 66 45 31 47 36 32 51 40 306 256 126 114 105 124 160 198 219 228 232 235 237 238 240 242 246 252 253 252 256
79 77 73 74 73 72 77 76 66 56 56 50 40 33 31 40 74 35 23 18 14 29 1 341 354 49 79 175 246 248 248 244 243 242 242 245 246 247 247 247 248 252 253 252
76 73 68 64 65 65 63 65 65 52 50 47 26 12 9 10 24 22 8 355 346 340 328 323 326 325 286 263 256 255 254 256 258 251 246 247 248 248 249 248 250 249 251 252
70 64 61 56 43 38 44 52 59 45 30 32 14 352 352 354 356 352 344 332 322 312 302 295 288 276 267 261 258 256 254 252 250 250 249 247 246 246 248 249 249 250 251 253